Time,TemperatureF,DewpointF,PressureIn,WindDirection,WindDirectionDegrees,WindSpeedMPH,WindSpeedGustMPH,Humidity,HourlyPrecipIn,Conditions,Clouds,dailyrainin,SoftwareType,DateUTC
2013-01-01 08:23:00,41.4,18.9,28.73,SW,230,4.0,4.0,40,0.00,,FEW120,0.00,VWS V14.01,2013-01-01 13:23:00,
2013-01-01 08:24:00,41.4,18.9,28.73,SW,230,4.0,4.0,40,0.00,,FEW120,0.00,VWS V14.01,2013-01-01 13:24:00,
2013-01-01 08:25:00,41.4,18.9,28.73,SW,223,3.6,3.6,40,0.00,,FEW120,0.00,VWS V14.01,2013-01-01 13:25:00,
2013-01-01 08:30:00,41.4,18.9,28.73,WSW,237,2.7,2.7,40,0.00,,FEW120,0.00,VWS V14.01,2013-01-01 13:30:00,
2013-01-01 08:35:00,41.9,18.8,28.73,South,173,2.2,4.0,39,0.00,,BKN110,0.00,VWS V14.01,2013-01-01 13:35:00,
2013-01-01 08:40:00,42.3,19.1,28.73,SSW,192,2.2,2.2,39,0.00,,BKN110,0.00,VWS V14.01,2013-01-01 13:40:00,
2013-01-01 08:45:00,42.4,18.6,28.73,ESE,121,2.7,2.7,38,0.00,,BKN110,0.00,VWS V14.01,2013-01-01 13:45:00,
2013-01-01 08:50:00,43.0,19.1,28.70,SW,216,4.0,4.0,38,0.00,,BKN110,0.00,VWS V14.01,2013-01-01 13:50:00,
2013-01-01 08:55:00,43.3,19.5,28.70,WSW,247,0.0,2.7,38,0.00,,BKN110,0.00,VWS V14.01,2013-01-01 13:55:00,
2013-01-01 09:00:00,43.7,19.8,28.73,ESE,123,2.2,4.0,38,0.00,,BKN110,0.00,VWS V14.01,2013-01-01 14:00:00,
2013-01-01 09:05:00,43.9,19.9,28.73,North,5,2.2,2.7,38,0.00,,SCT110,0.00,VWS V14.01,2013-01-01 14:05:00,
2013-01-01 09:10:00,44.1,20.1,28.73,West,268,4.9,4.9,38,0.00,,SCT110,0.00,VWS V14.01,2013-01-01 14:10:00,
2013-01-01 09:15:00,44.2,20.9,28.73,ENE,60,0.0,0.0,39,0.00,,SCT110,0.00,VWS V14.01,2013-01-01 14:15:00,
2013-01-01 09:20:00,44.4,21.0,28.73,ENE,60,0.0,0.0,39,0.00,,SCT110,0.00,VWS V14.01,2013-01-01 14:20:00,
2013-01-01 09:25:00,44.6,20.6,28.73,South,182,2.2,2.2,38,0.00,,SCT110,0.00,VWS V14.01,2013-01-01 14:25:00,
2013-01-01 09:30:00,44.8,20.7,28.70,East,83,3.1,3.1,38,0.00,,SCT110,0.00,VWS V14.01,2013-01-01 14:30:00,
2013-01-01 09:35:00,44.8,20.7,28.70,SW,235,2.2,2.2,38,0.00,,SCT110,0.00,VWS V14.01,2013-01-01 14:35:00,
2013-01-01 09:40:00,45.0,21.5,28.70,SE,127,0.0,2.2,39,0.00,,SCT110,0.00,VWS V14.01,2013-01-01 14:40:00,
2013-01-01 09:45:00,45.3,21.8,28.73,ESE,113,0.0,0.0,39,0.00,,SCT110,0.00,VWS V14.01,2013-01-01 14:45:00,
2013-01-01 09:50:00,45.5,22.0,28.73,SSW,192,3.6,3.6,39,0.00,,SCT110,0.00,VWS V14.01,2013-01-01 14:50:00,
2013-01-01 09:55:00,45.7,22.2,28.73,SSW,192,3.6,3.6,39,0.00,,SCT110,0.00,VWS V14.01,2013-01-01 14:55:00,
2013-01-01 10:00:00,45.9,22.3,28.70,South,180,3.6,3.6,39,0.00,,SCT110,0.00,VWS V14.01,2013-01-01 15:00:00,
2013-01-01 10:05:00,46.0,22.5,28.70,East,95,3.6,3.6,39,0.00,,OVC120,0.00,VWS V14.01,2013-01-01 15:05:00,
2013-01-01 10:10:00,46.0,22.5,28.70,East,95,3.6,3.6,39,0.00,,OVC120,0.00,VWS V14.01,2013-01-01 15:10:00,
2013-01-01 10:15:00,46.6,23.6,28.70,NNW,330,0.0,3.6,40,0.00,,OVC120,0.00,VWS V14.01,2013-01-01 15:15:00,
2013-01-01 10:20:00,46.6,23.6,28.73,WNW,283,0.0,0.0,40,0.00,,OVC120,0.00,VWS V14.01,2013-01-01 15:20:00,
2013-01-01 10:25:00,46.9,24.5,28.73,SW,225,2.7,2.7,41,0.00,,OVC120,0.00,VWS V14.01,2013-01-01 15:25:00,
2013-01-01 10:30:00,47.5,25.0,28.73,East,96,4.9,4.9,41,0.00,,OVC120,0.00,VWS V14.01,2013-01-01 15:30:00,
2013-01-01 10:35:00,47.7,25.1,28.70,East,81,0.0,0.0,41,0.00,,OVC028,0.00,VWS V14.01,2013-01-01 15:35:00,
2013-01-01 10:40:00,47.8,25.3,28.70,North,0,2.7,2.7,41,0.00,,OVC028,0.00,VWS V14.01,2013-01-01 15:40:00,
2013-01-01 10:45:00,48.4,25.2,28.70,ENE,68,4.0,4.0,40,0.00,,OVC028,0.00,VWS V14.01,2013-01-01 15:45:00,
2013-01-01 10:50:00,48.6,25.4,28.70,ESE,117,0.0,3.1,40,0.00,,OVC028,0.00,VWS V14.01,2013-01-01 15:50:00,
2013-01-01 10:55:00,48.7,25.5,28.70,ENE,64,0.0,0.0,40,0.00,,OVC028,0.00,VWS V14.01,2013-01-01 15:55:00,
2013-01-01 11:00:00,49.3,26.6,28.70,WSW,244,2.7,2.7,41,0.00,,OVC028,0.00,VWS V14.01,2013-01-01 16:00:00,
2013-01-01 11:05:00,49.5,26.8,28.73,WSW,244,2.7,2.7,41,0.00,,OVC028,0.00,VWS V14.01,2013-01-01 16:05:00,
2013-01-01 11:10:00,50.2,26.8,28.73,WSW,244,2.7,2.7,40,0.00,,OVC028,0.00,VWS V14.01,2013-01-01 16:10:00,
2013-01-01 11:15:00,50.5,27.1,28.73,WNW,285,4.0,4.0,40,0.00,,OVC028,0.00,VWS V14.01,2013-01-01 16:15:00,
2013-01-01 11:20:00,50.5,27.1,28.73,NNW,334,3.6,5.8,40,0.00,,OVC028,0.00,VWS V14.01,2013-01-01 16:20:00,
2013-01-01 11:25:00,50.4,26.4,28.73,WSW,244,3.6,3.6,39,0.00,,OVC028,0.00,VWS V14.01,2013-01-01 16:25:00,
2013-01-01 11:30:00,50.4,27.0,28.70,WSW,247,0.0,2.2,40,0.00,,OVC028,0.00,VWS V14.01,2013-01-01 16:30:00,
2013-01-01 11:35:00,50.9,26.8,28.70,West,261,4.0,4.0,39,0.00,,OVC028,0.00,VWS V14.01,2013-01-01 16:35:00,
2013-01-01 11:40:00,51.1,27.6,28.70,West,278,2.7,3.1,40,0.00,,OVC028,0.00,VWS V14.01,2013-01-01 16:40:00,
2013-01-01 11:45:00,51.1,27.0,28.70,NW,319,2.7,2.7,39,0.00,,OVC028,0.00,VWS V14.01,2013-01-01 16:45:00,
2013-01-01 11:50:00,50.9,27.5,28.70,West,273,2.2,2.2,40,0.00,,OVC028,0.00,VWS V14.01,2013-01-01 16:50:00,
2013-01-01 11:55:00,50.5,27.1,28.70,West,268,4.9,4.9,40,0.00,,OVC028,0.00,VWS V14.01,2013-01-01 16:55:00,
2013-01-01 12:00:00,50.7,26.7,28.64,SE,126,0.0,2.7,39,0.00,,OVC028,0.00,VWS V14.01,2013-01-01 17:00:00,
2013-01-01 12:05:00,50.7,27.3,28.64,NNE,23,0.0,2.7,40,0.00,,OVC030,0.00,VWS V14.01,2013-01-01 17:05:00,
2013-01-01 12:10:00,50.7,27.3,28.64,WNW,282,2.2,2.2,40,0.00,,OVC030,0.00,VWS V14.01,2013-01-01 17:10:00,
2013-01-01 12:15:00,50.4,27.0,28.70,NNW,328,2.7,2.7,40,0.00,,OVC030,0.00,VWS V14.01,2013-01-01 17:15:00,
2013-01-01 12:20:00,50.2,26.8,28.70,WNW,293,3.1,3.1,40,0.00,,OVC030,0.00,VWS V14.01,2013-01-01 17:20:00,
2013-01-01 12:25:00,50.2,27.4,28.70,NNW,344,0.0,3.1,41,0.00,,OVC030,0.00,VWS V14.01,2013-01-01 17:25:00,
2013-01-01 12:30:00,50.0,27.2,28.67,SSW,209,2.7,2.7,41,0.00,,OVC030,0.00,VWS V14.01,2013-01-01 17:30:00,
2013-01-01 12:35:00,50.0,27.2,28.67,West,262,3.1,3.1,41,0.00,,OVC028,0.00,VWS V14.01,2013-01-01 17:35:00,
2013-01-01 12:40:00,49.8,27.7,28.67,WSW,240,5.4,5.4,42,0.00,,OVC028,0.00,VWS V14.01,2013-01-01 17:40:00,
2013-01-01 12:45:00,50.0,27.8,28.67,SSW,195,6.3,6.3,42,0.00,,OVC028,0.00,VWS V14.01,2013-01-01 17:45:00,
2013-01-01 12:50:00,50.2,28.0,28.67,SW,233,4.5,4.5,42,0.00,,OVC028,0.00,VWS V14.01,2013-01-01 17:50:00,
2013-01-01 12:55:00,50.2,28.0,28.67,NW,321,2.7,3.6,42,0.00,,OVC028,0.00,VWS V14.01,2013-01-01 17:55:00,
2013-01-01 13:00:00,50.2,28.0,28.64,SSW,206,5.4,5.4,42,0.00,,OVC028,0.00,VWS V14.01,2013-01-01 18:00:00,
2013-01-01 13:05:00,50.2,28.0,28.64,SSW,204,5.4,5.4,42,0.00,,OVC030,0.00,VWS V14.01,2013-01-01 18:05:00,
2013-01-01 13:10:00,50.4,28.2,28.64,SSW,204,5.4,5.4,42,0.00,,OVC030,0.00,VWS V14.01,2013-01-01 18:10:00,
2013-01-01 13:15:00,50.5,28.3,28.64,SSW,204,5.4,5.4,42,0.00,,OVC030,0.00,VWS V14.01,2013-01-01 18:15:00,
2013-01-01 13:20:00,50.5,28.3,28.64,SSW,204,5.4,5.4,42,0.00,,OVC030,0.00,VWS V14.01,2013-01-01 18:20:00,
2013-01-01 13:25:00,50.5,28.3,28.64,SSW,204,5.4,5.4,42,0.00,,OVC030,0.00,VWS V14.01,2013-01-01 18:25:00,
2013-01-01 13:30:00,50.5,28.3,28.67,SSW,204,5.4,5.4,42,0.00,,OVC030,0.00,VWS V14.01,2013-01-01 18:30:00,
2013-01-01 13:35:00,50.5,28.3,28.67,SSW,204,5.4,5.4,42,0.00,,OVC030,0.00,VWS V14.01,2013-01-01 18:35:00,
2013-01-01 13:40:00,50.4,28.2,28.67,SSW,204,5.4,5.4,42,0.00,,OVC030,0.00,VWS V14.01,2013-01-01 18:40:00,
2013-01-01 13:45:00,50.4,28.2,28.67,SSW,204,5.4,5.4,42,0.00,,OVC030,0.00,VWS V14.01,2013-01-01 18:45:00,
2013-01-01 13:50:00,50.4,28.7,28.67,SSW,204,5.4,5.4,43,0.00,,OVC030,0.00,VWS V14.01,2013-01-01 18:50:00,
2013-01-01 13:55:00,50.2,28.0,28.67,SSW,204,5.4,5.4,42,0.00,,OVC030,0.00,VWS V14.01,2013-01-01 18:55:00,
2013-01-01 14:00:00,50.2,28.6,28.64,SSW,204,5.4,5.4,43,0.00,,OVC030,0.00,VWS V14.01,2013-01-01 19:00:00,
2013-01-01 14:05:00,50.0,27.8,28.64,SSW,204,5.4,5.4,42,0.00,,OVC030,0.00,VWS V14.01,2013-01-01 19:05:00,
2013-01-01 14:10:00,50.2,28.0,28.64,SSW,204,5.4,5.4,42,0.00,,OVC030,0.00,VWS V14.01,2013-01-01 19:10:00,
2013-01-01 14:15:00,50.2,28.0,28.64,SW,234,3.1,5.4,42,0.00,,OVC030,0.00,VWS V14.01,2013-01-01 19:15:00,
2013-01-01 14:20:00,50.2,28.0,28.64,SW,234,3.1,3.1,42,0.00,,OVC030,0.00,VWS V14.01,2013-01-01 19:20:00,
2013-01-01 14:25:00,50.2,28.0,28.64,SSW,203,3.1,3.1,42,0.00,,OVC030,0.00,VWS V14.01,2013-01-01 19:25:00,
2013-01-01 14:30:00,50.2,28.0,28.64,WSW,241,3.1,3.6,42,0.00,,OVC030,0.00,VWS V14.01,2013-01-01 19:30:00,
2013-01-01 14:35:00,50.2,28.0,28.64,WSW,241,3.1,3.1,42,0.00,,OVC030,0.00,VWS V14.01,2013-01-01 19:35:00,
2013-01-01 14:40:00,50.0,28.4,28.64,WSW,252,2.7,2.7,43,0.00,,OVC030,0.00,VWS V14.01,2013-01-01 19:40:00,
2013-01-01 14:45:00,50.0,28.4,28.64,WSW,252,2.7,2.7,43,0.00,,OVC030,0.00,VWS V14.01,2013-01-01 19:45:00,
2013-01-01 14:50:00,50.0,27.8,28.64,WSW,252,2.7,2.7,42,0.00,,OVC030,0.00,VWS V14.01,2013-01-01 19:50:00,
2013-01-01 14:55:00,50.0,27.8,28.64,WSW,252,2.7,2.7,42,0.00,,OVC028,0.00,VWS V14.01,2013-01-01 19:55:00,
2013-01-01 15:01:00,50.0,27.8,28.67,WSW,252,2.7,2.7,42,0.00,,OVC028,0.00,VWS V14.01,2013-01-01 20:01:00,
2013-01-01 15:06:00,50.0,27.8,28.67,WSW,252,2.7,2.7,42,0.00,,OVC028,0.00,VWS V14.01,2013-01-01 20:06:00,
2013-01-01 15:11:00,49.8,27.7,28.67,WSW,252,2.7,2.7,42,0.00,,OVC028,0.00,VWS V14.01,2013-01-01 20:11:00,
2013-01-01 15:16:00,49.8,28.2,28.67,WSW,252,2.7,2.7,43,0.00,,OVC028,0.00,VWS V14.01,2013-01-01 20:16:00,
2013-01-01 15:21:00,49.8,28.2,28.67,WSW,252,2.7,2.7,43,0.00,,OVC028,0.00,VWS V14.01,2013-01-01 20:21:00,
2013-01-01 15:26:00,49.8,28.2,28.67,WSW,252,2.7,2.7,43,0.00,,OVC028,0.00,VWS V14.01,2013-01-01 20:26:00,
2013-01-01 15:31:00,49.8,28.2,28.67,WSW,252,2.7,2.7,43,0.00,,OVC028,0.00,VWS V14.01,2013-01-01 20:31:00,
2013-01-01 15:36:00,49.8,28.2,28.67,WSW,252,2.7,2.7,43,0.00,,OVC028,0.00,VWS V14.01,2013-01-01 20:36:00,
2013-01-01 15:41:00,49.8,28.2,28.67,WSW,252,2.7,2.7,43,0.00,,OVC028,0.00,VWS V14.01,2013-01-01 20:41:00,
2013-01-01 15:46:00,49.6,28.1,28.67,WSW,252,2.7,2.7,43,0.00,,OVC028,0.00,VWS V14.01,2013-01-01 20:46:00,
2013-01-01 15:52:00,49.8,28.2,28.67,WSW,252,2.7,2.7,43,0.00,,OVC028,0.00,VWS V14.01,2013-01-01 20:52:00,
2013-01-01 15:57:00,49.8,28.2,28.67,WSW,252,2.7,2.7,43,0.00,,OVC028,0.00,VWS V14.01,2013-01-01 20:57:00,
2013-01-01 16:02:00,49.8,28.2,28.67,WSW,252,2.7,2.7,43,0.00,,OVC028,0.00,VWS V14.01,2013-01-01 21:02:00,
2013-01-01 16:07:00,49.8,27.7,28.67,WSW,252,2.7,2.7,42,0.00,,OVC028,0.00,VWS V14.01,2013-01-01 21:07:00,
2013-01-01 16:12:00,49.8,27.7,28.67,WSW,252,2.7,2.7,42,0.00,,OVC028,0.00,VWS V14.01,2013-01-01 21:12:00,
2013-01-01 16:17:00,49.8,27.7,28.67,WSW,252,2.7,2.7,42,0.00,,OVC028,0.00,VWS V14.01,2013-01-01 21:17:00,
2013-01-01 16:22:00,49.6,27.5,28.67,WSW,252,2.7,2.7,42,0.00,,OVC028,0.00,VWS V14.01,2013-01-01 21:22:00,
2013-01-01 16:27:00,49.6,27.5,28.67,WSW,252,2.7,2.7,42,0.00,,OVC028,0.00,VWS V14.01,2013-01-01 21:27:00,
2013-01-01 16:32:00,49.6,27.5,28.67,WSW,252,2.7,2.7,42,0.00,,OVC028,0.00,VWS V14.01,2013-01-01 21:32:00,
2013-01-01 16:37:00,49.6,27.5,28.67,WSW,252,2.7,2.7,42,0.00,,OVC028,0.00,VWS V14.01,2013-01-01 21:37:00,
2013-01-01 16:42:00,49.6,26.9,28.67,WSW,252,2.7,2.7,41,0.00,,OVC028,0.00,VWS V14.01,2013-01-01 21:42:00,
2013-01-01 16:47:00,49.6,26.9,28.67,WSW,252,2.7,2.7,41,0.00,,OVC028,0.00,VWS V14.01,2013-01-01 21:47:00,
2013-01-01 16:52:00,49.5,27.3,28.67,WSW,252,2.7,2.7,42,0.00,,OVC028,0.00,VWS V14.01,2013-01-01 21:52:00,
2013-01-01 16:57:00,49.6,26.9,28.67,WSW,252,2.7,2.7,41,0.00,,OVC028,0.00,VWS V14.01,2013-01-01 21:57:00,
2013-01-01 17:02:00,49.5,26.8,28.67,WSW,252,2.7,2.7,41,0.00,,OVC028,0.00,VWS V14.01,2013-01-01 22:02:00,
2013-01-01 17:07:00,49.3,27.2,28.67,WSW,252,2.7,2.7,42,0.00,,OVC028,0.00,VWS V14.01,2013-01-01 22:07:00,
2013-01-01 17:12:00,49.1,27.0,28.67,WSW,252,2.7,2.7,42,0.00,,OVC028,0.00,VWS V14.01,2013-01-01 22:12:00,
2013-01-01 17:17:00,49.1,27.0,28.67,WSW,252,2.7,2.7,42,0.00,,OVC028,0.00,VWS V14.01,2013-01-01 22:17:00,
2013-01-01 17:22:00,49.3,27.8,28.67,WSW,252,2.7,2.7,43,0.00,,OVC028,0.00,VWS V14.01,2013-01-01 22:22:00,
2013-01-01 17:27:00,49.3,27.2,28.67,WSW,252,2.7,2.7,42,0.00,,OVC028,0.00,VWS V14.01,2013-01-01 22:27:00,
2013-01-01 17:32:00,49.1,27.0,28.67,WSW,252,2.7,2.7,42,0.00,,OVC028,0.00,VWS V14.01,2013-01-01 22:32:00,
2013-01-01 17:37:00,48.9,26.9,28.67,WSW,252,2.7,2.7,42,0.00,,OVC028,0.00,VWS V14.01,2013-01-01 22:37:00,
2013-01-01 17:42:00,48.7,26.7,28.67,WSW,252,2.7,2.7,42,0.00,,OVC028,0.00,VWS V14.01,2013-01-01 22:42:00,
2013-01-01 17:47:00,48.7,27.3,28.67,WSW,252,2.7,2.7,43,0.00,,OVC028,0.00,VWS V14.01,2013-01-01 22:47:00,
2013-01-01 17:52:00,48.7,27.3,28.67,WSW,252,2.7,2.7,43,0.00,,OVC028,0.00,VWS V14.01,2013-01-01 22:52:00,
2013-01-01 17:57:00,48.7,27.3,28.67,WSW,252,2.7,2.7,43,0.00,,OVC028,0.00,VWS V14.01,2013-01-01 22:57:00,
2013-01-01 18:02:00,48.6,27.1,28.70,WSW,252,2.7,2.7,43,0.00,,OVC026,0.00,VWS V14.01,2013-01-01 23:02:00,
2013-01-01 18:07:00,48.6,27.1,28.70,WNW,296,0.0,2.7,43,0.00,,OVC026,0.00,VWS V14.01,2013-01-01 23:07:00,
2013-01-01 18:12:00,48.4,26.9,28.70,WNW,296,0.0,0.0,43,0.00,,OVC026,0.00,VWS V14.01,2013-01-01 23:12:00,
2013-01-01 18:17:00,48.0,26.6,28.70,WNW,296,0.0,0.0,43,0.00,,OVC026,0.00,VWS V14.01,2013-01-01 23:17:00,
2013-01-01 18:22:00,47.5,26.1,28.70,WNW,296,0.0,0.0,43,0.00,,OVC026,0.00,VWS V14.01,2013-01-01 23:22:00,
2013-01-01 18:27:00,47.3,26.5,28.70,WNW,296,0.0,0.0,44,0.00,,OVC026,0.00,VWS V14.01,2013-01-01 23:27:00,
2013-01-01 18:32:00,47.1,26.3,28.70,WNW,296,0.0,0.0,44,0.00,,OVC026,0.00,VWS V14.01,2013-01-01 23:32:00,
2013-01-01 18:37:00,46.9,26.2,28.70,WNW,296,0.0,0.0,44,0.00,,OVC026,0.00,VWS V14.01,2013-01-01 23:37:00,
2013-01-01 18:42:00,46.9,26.2,28.70,WNW,296,0.0,0.0,44,0.00,,OVC026,0.00,VWS V14.01,2013-01-01 23:42:00,
2013-01-01 18:47:00,46.8,25.5,28.73,WNW,296,0.0,0.0,43,0.00,,OVC026,0.00,VWS V14.01,2013-01-01 23:47:00,
2013-01-01 18:52:00,46.6,25.9,28.73,WNW,296,0.0,0.0,44,0.00,,OVC026,0.00,VWS V14.01,2013-01-01 23:52:00,
2013-01-01 18:57:00,46.6,25.9,28.73,WNW,296,0.0,0.0,44,0.00,,OVC026,0.00,VWS V14.01,2013-01-01 23:57:00,
2013-01-01 19:02:00,46.2,26.1,28.70,SSE,152,0.0,0.0,45,0.00,,OVC045,0.00,VWS V14.01,2013-01-02 00:02:00,
2013-01-01 19:07:00,46.2,26.1,28.70,SSE,152,0.0,0.0,45,0.00,,OVC045,0.00,VWS V14.01,2013-01-02 00:07:00,
2013-01-01 19:12:00,46.2,26.1,28.70,SSE,152,0.0,0.0,45,0.00,,OVC045,0.00,VWS V14.01,2013-01-02 00:12:00,
2013-01-01 19:17:00,46.2,26.1,28.70,South,182,0.0,0.0,45,0.00,,OVC045,0.00,VWS V14.01,2013-01-02 00:17:00,
2013-01-01 19:22:00,46.4,26.2,28.70,South,182,0.0,0.0,45,0.00,,OVC045,0.00,VWS V14.01,2013-01-02 00:22:00,
2013-01-01 19:27:00,46.2,26.6,28.70,WNW,282,3.6,3.6,46,0.00,,OVC045,0.00,VWS V14.01,2013-01-02 00:27:00,
2013-01-01 19:32:00,46.6,25.9,28.70,WSW,239,0.0,0.0,44,0.00,,OVC045,0.00,VWS V14.01,2013-01-02 00:32:00,
2013-01-01 19:37:00,46.4,26.2,28.70,WSW,239,0.0,0.0,45,0.00,,OVC045,0.00,VWS V14.01,2013-01-02 00:37:00,
2013-01-01 19:42:00,46.2,26.1,28.70,WSW,239,0.0,0.0,45,0.00,,OVC045,0.00,VWS V14.01,2013-01-02 00:42:00,
2013-01-01 19:47:00,46.4,25.7,28.70,WSW,239,0.0,0.0,44,0.00,,OVC045,0.00,VWS V14.01,2013-01-02 00:47:00,
2013-01-01 19:53:00,46.4,25.7,28.70,WSW,239,0.0,0.0,44,0.00,,OVC045,0.00,VWS V14.01,2013-01-02 00:53:00,
2013-01-01 19:58:00,46.4,25.1,28.70,WSW,239,0.0,0.0,43,0.00,,OVC045,0.00,VWS V14.01,2013-01-02 00:58:00,
2013-01-01 20:03:00,46.4,23.4,28.70,WSW,239,0.0,0.0,40,0.00,,OVC045,0.00,VWS V14.01,2013-01-02 01:03:00,
2013-01-01 20:08:00,46.8,23.7,28.70,WSW,239,0.0,0.0,40,0.00,,OVC045,0.00,VWS V14.01,2013-01-02 01:08:00,
2013-01-01 20:13:00,46.9,23.9,28.70,WSW,239,0.0,0.0,40,0.00,,OVC045,0.00,VWS V14.01,2013-01-02 01:13:00,
2013-01-01 20:18:00,46.9,23.3,28.67,WSW,239,0.0,0.0,39,0.00,,OVC045,0.00,VWS V14.01,2013-01-02 01:18:00,
2013-01-01 20:23:00,46.8,23.7,28.67,WSW,239,0.0,0.0,40,0.00,,OVC045,0.00,VWS V14.01,2013-01-02 01:23:00,
2013-01-01 20:28:00,46.6,23.6,28.67,WSW,239,0.0,0.0,40,0.00,,OVC045,0.00,VWS V14.01,2013-01-02 01:28:00,
2013-01-01 20:33:00,46.6,23.6,28.70,WSW,239,0.0,0.0,40,0.00,,OVC100,0.00,VWS V14.01,2013-01-02 01:33:00,
2013-01-01 20:38:00,46.4,24.6,28.70,WSW,239,0.0,0.0,42,0.00,,OVC100,0.00,VWS V14.01,2013-01-02 01:38:00,
2013-01-01 20:43:00,45.9,25.2,28.70,WSW,239,0.0,0.0,44,0.00,,OVC100,0.00,VWS V14.01,2013-01-02 01:43:00,
2013-01-01 20:48:00,45.3,25.8,28.70,WSW,239,0.0,0.0,46,0.00,,OVC100,0.00,VWS V14.01,2013-01-02 01:48:00,
2013-01-01 20:53:00,45.1,26.6,28.70,WSW,239,0.0,0.0,48,0.00,,OVC100,0.00,VWS V14.01,2013-01-02 01:53:00,
2013-01-01 20:58:00,44.6,26.6,28.70,WSW,239,0.0,0.0,49,0.00,,OVC100,0.00,VWS V14.01,2013-01-02 01:58:00,
2013-01-01 21:04:00,44.1,27.1,28.70,WSW,239,0.0,0.0,51,0.00,,-RA,0.00,VWS V14.01,2013-01-02 02:04:00,
2013-01-01 21:09:00,43.7,26.3,28.70,WSW,239,0.0,0.0,50,0.00,,-RA,0.00,VWS V14.01,2013-01-02 02:09:00,
2013-01-01 21:14:00,43.7,26.3,28.70,WSW,239,0.0,0.0,50,0.00,,-RA,0.00,VWS V14.01,2013-01-02 02:14:00,
2013-01-01 21:19:00,43.7,26.8,28.70,WSW,239,0.0,0.0,51,0.00,,-RA,0.00,VWS V14.01,2013-01-02 02:19:00,
2013-01-01 21:24:00,43.7,26.3,28.70,WSW,239,0.0,0.0,50,0.00,,-RA,0.00,VWS V14.01,2013-01-02 02:24:00,
2013-01-01 21:29:00,43.9,26.5,28.70,WSW,239,0.0,0.0,50,0.00,,-RA,0.00,VWS V14.01,2013-01-02 02:29:00,
2013-01-01 21:34:00,43.9,26.9,28.73,NW,313,0.0,0.0,51,0.00,,-RA,0.00,VWS V14.01,2013-01-02 02:34:00,
2013-01-01 21:39:00,43.7,27.7,28.73,NW,313,0.0,0.0,53,0.00,,-RA,0.00,VWS V14.01,2013-01-02 02:39:00,
2013-01-01 21:44:00,43.5,28.4,28.73,NW,313,0.0,0.0,55,0.00,,-RA,0.00,VWS V14.01,2013-01-02 02:44:00,
2013-01-01 21:49:00,43.3,28.7,28.73,WSW,249,3.1,3.1,56,0.00,,-RA,0.00,VWS V14.01,2013-01-02 02:49:00,
2013-01-01 21:54:00,43.2,29.4,28.73,WSW,254,0.0,0.0,58,0.00,,-RA,0.00,VWS V14.01,2013-01-02 02:54:00,
2013-01-01 21:59:00,43.0,29.6,28.73,WSW,254,0.0,0.0,59,0.00,,-RA,0.00,VWS V14.01,2013-01-02 02:59:00,
2013-01-01 22:05:00,43.0,30.1,28.73,WSW,244,0.0,0.0,60,0.00,,-RA,0.00,VWS V14.01,2013-01-02 03:05:00,
2013-01-01 22:10:00,42.8,30.3,28.73,WSW,244,0.0,0.0,61,0.00,,-RA,0.00,VWS V14.01,2013-01-02 03:10:00,
2013-01-01 22:15:00,42.6,30.9,28.73,WSW,244,0.0,0.0,63,0.00,,-RA,0.00,VWS V14.01,2013-01-02 03:15:00,
2013-01-01 22:20:00,42.4,31.1,28.73,WSW,244,2.2,2.2,64,0.00,,-RA,0.00,VWS V14.01,2013-01-02 03:20:00,
2013-01-01 22:25:00,42.4,31.9,28.73,WSW,244,0.0,0.0,66,0.00,,-RA,0.00,VWS V14.01,2013-01-02 03:25:00,
2013-01-01 22:30:00,42.4,32.6,28.73,West,266,0.0,0.0,68,0.00,,-RA,0.00,VWS V14.01,2013-01-02 03:30:00,
2013-01-01 22:35:00,42.3,33.2,28.73,West,266,0.0,0.0,70,0.00,,-RA,0.00,VWS V14.01,2013-01-02 03:35:00,
2013-01-01 22:40:00,42.3,33.9,28.73,West,266,0.0,0.0,72,0.00,,-RA,0.00,VWS V14.01,2013-01-02 03:40:00,
2013-01-01 22:45:00,42.1,34.1,28.73,West,272,0.0,0.0,73,0.04,,-RA,0.04,VWS V14.01,2013-01-02 03:45:00,
2013-01-01 22:50:00,42.1,34.1,28.73,WNW,283,0.0,0.0,73,0.04,,-RA,0.04,VWS V14.01,2013-01-02 03:50:00,
2013-01-01 22:55:00,41.9,33.9,28.73,NNW,341,0.0,0.0,73,0.04,,-RA,0.04,VWS V14.01,2013-01-02 03:55:00,
2013-01-01 23:00:00,41.7,33.7,28.73,NNW,341,0.0,0.0,73,0.04,,-RA,0.04,VWS V14.01,2013-01-02 04:00:00,